TimeCDT,TemperatureF,Dew PointF,Humidity,Sea Level PressureIn,VisibilityMPH,Wind Direction,Wind SpeedMPH,Gust SpeedMPH,PrecipitationIn,Events,Conditions,WindDirDegrees,DateUTC
12:15 AM,72.9,64.4,75,29.81,10.0,SSE,10.4,-,N/A,Rain,Light Rain,160,2013-10-03 05:15:00
12:35 AM,72.0,64.8,78,29.80,10.0,SSE,9.2,-,N/A,,Scattered Clouds,160,2013-10-03 05:35:00
12:55 AM,72.1,65.1,78,29.81,7.0,WSW,6.9,-,0.05,Rain-Thunderstorm,Heavy Thunderstorms and Rain,250,2013-10-03 05:55:00
1:15 AM,70.9,66.2,85,29.80,7.0,Calm,Calm,-,0.03,Rain-Thunderstorm,Light Thunderstorms and Rain,0,2013-10-03 06:15:00
1:35 AM,67.5,62.2,83,29.82,10.0,NNE,17.3,21.9,0.03,Rain-Thunderstorm,Light Thunderstorms and Rain,20,2013-10-03 06:35:00
1:55 AM,64.8,59.7,84,29.85,10.0,NE,24.2,29.9,0.04,Rain-Thunderstorm,Rain,40,2013-10-03 06:55:00
2:15 AM,64.0,59.5,85,29.81,5.0,North,18.4,39.1,0.04,Rain-Thunderstorm,Heavy Thunderstorms and Rain,360,2013-10-03 07:15:00
2:35 AM,63.0,59.9,90,29.86,0.8,ENE,10.4,-,0.74,Rain-Thunderstorm,Heavy Thunderstorms and Rain,70,2013-10-03 07:35:00
2:55 AM,62.6,59.9,91,29.85,1.2,NE,12.7,-,1.35,Rain-Thunderstorm,Heavy Thunderstorms and Rain,50,2013-10-03 07:55:00
3:15 AM,62.6,59.9,91,29.85,3.0,East,12.7,-,0.16,Rain-Thunderstorm,Heavy Thunderstorms and Rain,80,2013-10-03 08:15:00
3:35 AM,62.6,59.9,91,29.83,4.0,East,12.7,18.4,0.31,Rain-Thunderstorm,Heavy Thunderstorms and Rain,80,2013-10-03 08:35:00
3:55 AM,62.6,60.1,91,29.82,3.0,ENE,13.8,-,0.46,Rain-Thunderstorm,Rain,70,2013-10-03 08:55:00
4:15 AM,62.6,59.9,91,29.82,5.0,East,15.0,19.6,0.06,Rain-Thunderstorm,Rain,100,2013-10-03 09:15:00
4:35 AM,62.4,59.9,91,29.79,7.0,East,13.8,19.6,0.11,Rain-Thunderstorm,Light Thunderstorms and Rain,90,2013-10-03 09:35:00
4:55 AM,62.6,59.9,91,29.80,10.0,East,11.5,-,0.12,Rain-Thunderstorm,Light Thunderstorms and Rain,90,2013-10-03 09:55:00
5:15 AM,62.6,59.9,91,29.83,7.0,ENE,4.6,-,0.03,Rain-Thunderstorm,Thunderstorms and Rain,70,2013-10-03 10:15:00
5:35 AM,62.2,59.9,92,29.84,2.5,ENE,3.5,-,0.34,Rain-Thunderstorm,Heavy Thunderstorms and Rain,70,2013-10-03 10:35:00
5:55 AM,62.1,59.9,93,29.83,5.0,SE,6.9,16.1,0.52,Rain-Thunderstorm,Heavy Thunderstorms and Rain,130,2013-10-03 10:55:00
6:15 AM,62.6,59.9,91,29.83,5.0,SE,12.7,-,0.07,Rain-Thunderstorm,Thunderstorms and Rain,130,2013-10-03 11:15:00
6:35 AM,62.6,59.9,91,29.83,10.0,SE,9.2,-,0.08,Rain-Thunderstorm,Light Thunderstorms and Rain,130,2013-10-03 11:35:00
6:55 AM,62.6,59.9,91,29.84,10.0,ESE,6.9,-,0.08,Thunderstorm,Thunderstorm,120,2013-10-03 11:55:00
7:15 AM,62.6,59.9,91,29.82,10.0,SE,10.4,-,0.01,,Overcast,130,2013-10-03 12:15:00
7:35 AM,62.6,59.9,91,29.81,10.0,ESE,11.5,-,0.01,,Overcast,110,2013-10-03 12:35:00
7:55 AM,62.6,59.9,91,29.80,10.0,ESE,6.9,-,0.01,,Overcast,110,2013-10-03 12:55:00
8:15 AM,62.8,59.9,90,29.80,10.0,ESE,5.8,-,N/A,,Scattered Clouds,120,2013-10-03 13:15:00
8:35 AM,63.0,59.9,90,29.80,10.0,ESE,6.9,-,N/A,,Scattered Clouds,120,2013-10-03 13:35:00
8:55 AM,64.0,60.1,87,29.81,10.0,SE,9.2,-,N/A,,Mostly Cloudy,130,2013-10-03 13:55:00
9:15 AM,65.1,60.1,84,29.81,10.0,SE,13.8,-,N/A,,Mostly Cloudy,130,2013-10-03 14:15:00
9:35 AM,66.4,60.6,82,29.81,10.0,SE,13.8,18.4,N/A,,Scattered Clouds,130,2013-10-03 14:35:00
9:55 AM,67.3,60.6,79,29.81,10.0,SE,12.7,-,N/A,,Scattered Clouds,140,2013-10-03 14:55:00
10:15 AM,68.4,61.0,77,29.80,10.0,SE,15.0,23.0,N/A,,Scattered Clouds,130,2013-10-03 15:15:00
10:35 AM,69.3,61.7,77,29.79,10.0,SE,19.6,25.3,N/A,,Clear,140,2013-10-03 15:35:00
10:55 AM,70.3,62.4,76,29.78,10.0,SE,18.4,26.5,N/A,,Clear,140,2013-10-03 15:55:00
11:15 AM,70.9,62.2,74,29.78,10.0,SE,19.6,26.5,N/A,,Clear,140,2013-10-03 16:15:00
11:35 AM,72.3,63.3,73,29.78,10.0,SSE,18.4,24.2,N/A,,Clear,150,2013-10-03 16:35:00
11:55 AM,73.6,63.5,71,29.77,10.0,SE,18.4,25.3,N/A,,Clear,140,2013-10-03 16:55:00
12:15 PM,74.5,63.9,69,29.76,10.0,SSE,18.4,24.2,N/A,,Clear,150,2013-10-03 17:15:00
12:35 PM,75.4,64.4,69,29.75,10.0,SSE,13.8,23.0,N/A,,Scattered Clouds,150,2013-10-03 17:35:00
12:55 PM,75.7,64.4,68,29.74,10.0,SSE,16.1,23.0,N/A,,Scattered Clouds,150,2013-10-03 17:55:00
1:15 PM,77.0,64.4,65,29.73,10.0,SSE,17.3,24.2,N/A,,Mostly Cloudy,150,2013-10-03 18:15:00
1:35 PM,76.5,64.8,67,29.71,10.0,SE,12.7,19.6,N/A,,Mostly Cloudy,140,2013-10-03 18:35:00
1:55 PM,78.8,65.3,63,29.71,10.0,South,17.3,24.2,N/A,,Mostly Cloudy,180,2013-10-03 18:55:00
2:15 PM,78.1,65.1,64,29.71,10.0,SSE,15.0,-,N/A,,Mostly Cloudy,160,2013-10-03 19:15:00
2:35 PM,79.2,64.8,61,29.71,10.0,South,20.7,24.2,N/A,,Mostly Cloudy,190,2013-10-03 19:35:00
2:55 PM,78.4,64.6,62,29.71,10.0,South,13.8,20.7,N/A,,Mostly Cloudy,180,2013-10-03 19:55:00
3:15 PM,78.3,64.4,62,29.72,10.0,South,11.5,-,N/A,,Overcast,180,2013-10-03 20:15:00
3:35 PM,79.0,64.9,62,29.71,10.0,South,8.1,-,N/A,,Mostly Cloudy,170,2013-10-03 20:35:00
3:55 PM,79.9,65.7,62,29.71,10.0,South,8.1,-,N/A,,Mostly Cloudy,170,2013-10-03 20:55:00
4:15 PM,80.4,65.5,60,29.71,10.0,SE,5.8,-,N/A,,Scattered Clouds,130,2013-10-03 21:15:00
4:35 PM,80.8,65.7,60,29.70,10.0,SSE,6.9,-,N/A,,Scattered Clouds,150,2013-10-03 21:35:00
4:55 PM,81.5,65.7,58,29.69,10.0,ESE,5.8,-,N/A,,Scattered Clouds,110,2013-10-03 21:55:00
5:15 PM,81.9,65.8,58,29.69,10.0,East,8.1,-,N/A,,Mostly Cloudy,80,2013-10-03 22:15:00
5:35 PM,80.4,66.6,63,29.69,10.0,ENE,6.9,-,N/A,,Overcast,60,2013-10-03 22:35:00
5:55 PM,80.2,66.4,63,29.69,10.0,ENE,9.2,-,N/A,,Overcast,60,2013-10-03 22:55:00
6:15 PM,79.2,66.7,66,29.69,10.0,NE,11.5,-,N/A,,Mostly Cloudy,50,2013-10-03 23:15:00
6:35 PM,77.7,66.6,68,29.68,10.0,ENE,11.5,-,N/A,,Scattered Clouds,60,2013-10-03 23:35:00
6:55 PM,77.0,66.6,70,29.69,10.0,ENE,10.4,-,N/A,,Scattered Clouds,70,2013-10-03 23:55:00
7:15 PM,76.3,66.6,72,29.69,10.0,ENE,9.2,-,N/A,,Scattered Clouds,60,2013-10-04 00:15:00
7:35 PM,75.7,66.6,73,29.69,10.0,ENE,10.4,-,N/A,,Scattered Clouds,60,2013-10-04 00:35:00
7:55 PM,75.4,66.4,73,29.69,10.0,ENE,13.8,-,N/A,,Mostly Cloudy,70,2013-10-04 00:55:00
8:15 PM,75.6,66.2,73,29.69,10.0,East,15.0,-,N/A,,Mostly Cloudy,80,2013-10-04 01:15:00
8:35 PM,75.2,66.2,73,29.68,10.0,East,12.7,18.4,N/A,,Mostly Cloudy,80,2013-10-04 01:35:00
8:55 PM,74.7,66.4,75,29.67,10.0,ESE,6.9,-,N/A,Thunderstorm,Thunderstorm,110,2013-10-04 01:55:00
9:15 PM,74.5,66.7,77,29.67,10.0,Calm,Calm,-,N/A,Thunderstorm,Overcast,0,2013-10-04 02:15:00
9:35 PM,73.9,67.1,79,29.67,10.0,East,5.8,-,N/A,Thunderstorm,Mostly Cloudy,90,2013-10-04 02:35:00
9:55 PM,73.6,66.9,80,29.66,10.0,SE,8.1,-,N/A,Thunderstorm,Thunderstorm,140,2013-10-04 02:55:00
10:15 PM,73.0,67.1,82,29.69,10.0,North,6.9,-,N/A,Thunderstorm,Clear,350,2013-10-04 03:15:00
10:35 PM,72.0,65.5,80,29.69,10.0,East,4.6,-,N/A,,Clear,80,2013-10-04 03:35:00
11:35 PM,68.4,60.8,77,29.71,10.0,ESE,6.9,-,N/A,,Clear,110,2013-10-04 04:35:00
11:55 PM,68.5,61.2,77,29.71,10.0,East,5.8,-,N/A,,Clear,100,2013-10-04 04:55:00